Hebron, NE

10:25 PM CDT on July 22, 2017 (GMT -0500)
Hebron Municipal

Weather History for KHJH - October, 2011

Change the Weather History Date:

Wednesday, October 5, 2011

  Actual Average Record
Temperature  
Mean Temperature 68 °F -  
Max Temperature 82 °F 73 °F 94 °F (1956)
Min Temperature 55 °F 44 °F 33 °F (1964)
Cooling Degree Days 4    
Growing Degree Days 18 (Base 50)    
Moisture  
Dew Point 41 °F    
Average Humidity 38    
Maximum Humidity 59    
Minimum Humidity 19    
Precipitation  
Precipitation 0.00 in - - ()
Sea Level Pressure  
Sea Level Pressure 30.02 in    
Wind  
Wind Speed 11 mph (South)    
Max Wind Speed 23 mph    
Max Gust Speed 31 mph    
Visibility 10 miles    
Events      
Averages and records for this station are not official NWS values.
T = Trace of Precipitation, MM = Missing Value Source: NWS Daily Summary

Daily Weather History Graph

Daily Weather History Graph

Search for Another Location

Airport or City:

Trip Planner

Search our weather history database for the weather conditions in past years. The results will help you decide how hot, cold, wet, or windy it might be!

Date:

Astronomy

Oct. 05, 2011 Rise Set
Actual Time 7:30 AM CDT 7:06 PM CDT
Civil Twilight 7:03 AM CDT 7:33 PM CDT
Nautical Twilight 6:31 AM CDT 8:04 PM CDT
Astronomical Twilight 6:00 AM CDT 8:36 PM CDT
Moon 3:47 PM CDT (10/5) 1:17 AM CDT (10/5)
Length of Visible Light 12h 30m
Length of Day
11h 36m
Waxing Gibbous, 66% of the Moon is Illuminated
Oct 5
Waxing Gibbous
Oct 11
Full
Oct 19
Last Quarter
Oct 26
New
Nov 2
First Quarter

Hourly Weather History & Observations

Time (CDT) Temp. Dew Point Humidity Pressure Visibility Wind Dir Wind Speed Gust Speed Precip Events Conditions
12:15 AM 68.0 °F 44.6 °F 43% 30.06 in 10.0 mi South 9.2 mph - N/A   Clear
12:35 AM 66.2 °F 44.6 °F 46% 30.06 in 10.0 mi South 8.1 mph - N/A   Clear
12:55 AM 66.2 °F 44.6 °F 46% 30.06 in 10.0 mi South 8.1 mph - N/A   Clear
1:15 AM 64.4 °F 44.6 °F 49% 30.07 in 10.0 mi South 8.1 mph - N/A   Clear
1:35 AM 64.4 °F 44.6 °F 49% 30.07 in 10.0 mi South 9.2 mph - N/A   Clear
1:55 AM 64.4 °F 44.6 °F 49% 30.07 in 10.0 mi South 9.2 mph - N/A   Clear
2:15 AM 62.6 °F 44.6 °F 52% 30.07 in 10.0 mi South 9.2 mph - N/A   Clear
2:35 AM 62.6 °F 44.6 °F 52% 30.07 in 10.0 mi South 9.2 mph - N/A   Clear
2:55 AM 62.6 °F 42.8 °F 48% 30.07 in 10.0 mi South 8.1 mph - N/A   Clear
3:15 AM 62.6 °F 42.8 °F 48% 30.06 in 10.0 mi South 8.1 mph - N/A   Clear
3:35 AM 60.8 °F 42.8 °F 52% 30.06 in 10.0 mi South 9.2 mph - N/A   Clear
3:55 AM 60.8 °F 42.8 °F 52% 30.06 in 10.0 mi South 9.2 mph - N/A   Clear
4:15 AM 60.8 °F 42.8 °F 52% 30.05 in 10.0 mi South 9.2 mph - N/A   Clear
4:55 AM 60.8 °F 42.8 °F 52% 30.05 in 10.0 mi South 10.4 mph - N/A   Clear
5:15 AM 60.8 °F 42.8 °F 52% 30.05 in 10.0 mi South 10.4 mph 16.1 mph N/A   Clear
5:35 AM 59.0 °F 42.8 °F 55% 30.05 in 10.0 mi South 10.4 mph - N/A   Clear
5:55 AM 59.0 °F 42.8 °F 55% 30.05 in 10.0 mi South 10.4 mph - N/A   Clear
6:15 AM 59.0 °F 42.8 °F 55% 30.05 in 10.0 mi South 9.2 mph - N/A   Clear
6:35 AM 57.2 °F 42.8 °F 59% 30.05 in 10.0 mi South 9.2 mph - N/A   Clear
6:55 AM 57.2 °F 42.8 °F 59% 30.05 in 10.0 mi South 8.1 mph - N/A   Clear
7:15 AM 55.4 °F 41.0 °F 58% 30.05 in 10.0 mi South 9.2 mph - N/A   Clear
7:35 AM 55.4 °F 41.0 °F 58% 30.05 in 10.0 mi South 9.2 mph - N/A   Clear
8:15 AM 57.2 °F 41.0 °F 55% 30.06 in 10.0 mi South 9.2 mph - N/A   Clear
8:35 AM 59.0 °F 41.0 °F 51% 30.06 in 10.0 mi South 10.4 mph - N/A   Clear
8:55 AM 60.8 °F 41.0 °F 48% 30.06 in 10.0 mi South 11.5 mph - N/A   Clear
9:15 AM 62.6 °F 41.0 °F 45% 30.06 in 10.0 mi South 11.5 mph 16.1 mph N/A   Clear
9:35 AM 66.2 °F 41.0 °F 40% 30.06 in 10.0 mi South 10.4 mph - N/A   Clear
9:55 AM 69.8 °F 41.0 °F 35% 30.05 in 10.0 mi South 13.8 mph - N/A   Clear
10:15 AM 71.6 °F 39.2 °F 31% 30.06 in 10.0 mi South 11.5 mph 16.1 mph N/A   Clear
10:35 AM 71.6 °F 39.2 °F 31% 30.06 in 10.0 mi South 11.5 mph 18.4 mph N/A   Clear
10:55 AM 73.4 °F 39.2 °F 29% 30.05 in 10.0 mi South 13.8 mph - N/A   Clear
11:15 AM 73.4 °F 39.2 °F 29% 30.05 in 10.0 mi South 12.7 mph 20.7 mph N/A   Clear
11:35 AM 77.0 °F 39.2 °F 26% 30.04 in 10.0 mi South 12.7 mph 18.4 mph N/A   Clear
11:55 AM 78.8 °F 39.2 °F 24% 30.04 in 10.0 mi South 12.7 mph 18.4 mph N/A   Clear
12:15 PM 78.8 °F 37.4 °F 23% 30.03 in 10.0 mi South 17.3 mph 21.9 mph N/A   Clear
12:35 PM 80.6 °F 37.4 °F 21% 30.02 in 10.0 mi South 16.1 mph 24.2 mph N/A   Clear
12:55 PM 80.6 °F 37.4 °F 21% 30.01 in 10.0 mi South 18.4 mph 25.3 mph N/A   Clear
1:15 PM 80.6 °F 37.4 °F 21% 30.01 in 10.0 mi South 20.7 mph 28.8 mph N/A   Clear
1:35 PM 80.6 °F 39.2 °F 23% 30.00 in 10.0 mi South 16.1 mph 25.3 mph N/A   Clear
2:35 PM 82.4 °F 39.2 °F 21% 29.96 in 10.0 mi South 16.1 mph 27.6 mph N/A   Clear
2:55 PM 82.4 °F 37.4 °F 20% 29.96 in 10.0 mi South 18.4 mph 28.8 mph N/A   Clear
3:15 PM 82.4 °F 39.2 °F 21% 29.96 in 10.0 mi South 23.0 mph 31.1 mph N/A   Clear
3:35 PM 80.6 °F 37.4 °F 21% 29.95 in 10.0 mi South 17.3 mph 24.2 mph N/A   Clear
3:55 PM 82.4 °F 35.6 °F 19% 29.95 in 10.0 mi South 20.7 mph 31.1 mph N/A   Clear
4:15 PM 80.6 °F 37.4 °F 21% 29.94 in 10.0 mi South 21.9 mph 29.9 mph N/A   Clear
4:55 PM 80.6 °F 37.4 °F 21% 29.94 in 10.0 mi SSE 15.0 mph 24.2 mph N/A   Clear
5:15 PM 80.6 °F 37.4 °F 21% 29.93 in 10.0 mi SSE 20.7 mph 26.5 mph N/A   Clear
5:35 PM 80.6 °F 39.2 °F 23% 29.93 in 10.0 mi South 21.9 mph 29.9 mph N/A   Clear
5:55 PM 80.6 °F 37.4 °F 21% 29.93 in 10.0 mi SSE 16.1 mph 26.5 mph N/A   Clear
6:15 PM 78.8 °F 39.2 °F 24% 29.93 in 10.0 mi South 11.5 mph 20.7 mph N/A   Clear
6:35 PM 78.8 °F 39.2 °F 24% 29.93 in 10.0 mi South 12.7 mph 21.9 mph N/A   Clear
6:55 PM 77.0 °F 39.2 °F 26% 29.93 in 10.0 mi SSE 10.4 mph - N/A   Clear
7:15 PM 75.2 °F 41.0 °F 29% 29.93 in 10.0 mi South 12.7 mph 18.4 mph N/A   Clear
7:35 PM 73.4 °F 39.2 °F 29% 29.93 in 10.0 mi SSE 9.2 mph 16.1 mph N/A   Clear
7:55 PM 71.6 °F 39.2 °F 31% 29.94 in 10.0 mi SSE 6.9 mph - N/A   Clear
8:15 PM 71.6 °F 41.0 °F 33% 29.94 in 10.0 mi SSE 8.1 mph - N/A   Clear
8:35 PM 71.6 °F 41.0 °F 33% 29.94 in 10.0 mi SSE 9.2 mph - N/A   Clear
9:15 PM 69.8 °F 37.4 °F 31% 29.95 in 10.0 mi SSE 11.5 mph 17.3 mph N/A   Clear
9:35 PM 71.6 °F 37.4 °F 29% 29.95 in 10.0 mi SSE 12.7 mph 21.9 mph N/A   Clear
9:55 PM 69.8 °F 39.2 °F 33% 29.96 in 10.0 mi SSE 11.5 mph 17.3 mph N/A   Clear
10:15 PM 69.8 °F 39.2 °F 33% 29.96 in 10.0 mi SSE 11.5 mph 16.1 mph N/A   Clear
10:35 PM 69.8 °F 39.2 °F 33% 29.96 in 10.0 mi SSE 9.2 mph 16.1 mph N/A   Clear
10:55 PM 68.0 °F 41.0 °F 37% 29.96 in 10.0 mi SSE 11.5 mph 18.4 mph N/A   Clear
11:15 PM 68.0 °F 41.0 °F 37% 29.96 in 10.0 mi SSE 11.5 mph 16.1 mph N/A   Scattered Clouds
11:35 PM 68.0 °F 41.0 °F 37% 29.96 in 10.0 mi SSE 13.8 mph 19.6 mph N/A   Mostly Cloudy
11:55 PM 68.0 °F 41.0 °F 37% 29.96 in 10.0 mi SSE 11.5 mph 20.7 mph N/A   Mostly Cloudy